sat.trackr.live / text

‹ back to catalog

STARLINK-2001

NORAD 47596 · 2021-009BA

PAYLOAD ACTIVE UNKNOWN

§ Identity

Operator
Country
US
Launch date
2021-02-04
Launch site
AFETR
Launch vehicle
Mass (kg)
RCS (m²)

Purposes: comms

External: N2YO · Heavens-Above · Gunter

§ Orbital elements

Epoch: 2026-09-20T05:18:15.543072Z

Period
88.20 min
Inclination
53.0138°
Eccentricity
0.0009283
Mean motion
16.32707434 rev/d
Perigee alt
179.2 km
Apogee alt
191.4 km
Semi-major
6,563.4 km
B*
7.4279e-4
RAAN
134.3246°
Arg perigee
253.0616°
Mean anomaly
106.9410°
Rev number
31,142

§ Raw data

STARLINK-20011 47596U 21009BA  26263.22101323  .04596115  12140-4  74279-3 0  99912 47596  53.0138 134.3246 0009283 253.0616 106.9410 16.32707434311420

JSON: /api/v1/satellites/47596 · /tle

For live sub-satellite position, see the globe view (requires WebGL).

§ Visibility from observer

Set your observer location to see the next 7 days of passes ≥ 10°. The values pass through the URL so the page stays shareable.

No JS? Fill the form by hand. The geolocation button needs JavaScript.